TimeMST,TemperatureF,Dew PointF,Humidity,Sea Level PressureIn,VisibilityMPH,Wind Direction,Wind SpeedMPH,Gust SpeedMPH,PrecipitationIn,Events,Conditions,WindDirDegrees,DateUTC
12:55 AM,8.1,1.0,73,30.27,10.0,East,15.0,-,N/A,,Clear,100,2013-02-20 07:55:00
1:55 AM,7.0,1.0,77,30.25,10.0,East,17.3,-,N/A,,Clear,100,2013-02-20 08:55:00
2:55 AM,6.1,1.0,80,30.23,10.0,East,13.8,-,N/A,,Clear,100,2013-02-20 09:55:00
3:55 AM,6.1,1.0,80,30.22,10.0,East,11.5,-,N/A,,Clear,100,2013-02-20 10:55:00
4:55 AM,6.1,1.0,80,30.21,10.0,East,15.0,-,N/A,,Clear,100,2013-02-20 11:55:00
5:55 AM,6.1,1.0,80,30.20,10.0,East,13.8,-,N/A,,Clear,100,2013-02-20 12:55:00
6:55 AM,5.0,1.0,84,30.22,10.0,East,11.5,-,N/A,,Clear,100,2013-02-20 13:55:00
7:55 AM,7.0,1.9,80,30.20,10.0,East,12.7,-,N/A,,Clear,100,2013-02-20 14:55:00
8:55 AM,12.9,3.0,65,30.18,10.0,East,12.7,-,N/A,,Clear,100,2013-02-20 15:55:00
9:55 AM,17.1,1.9,52,30.16,10.0,SE,17.3,23.0,N/A,,Overcast,130,2013-02-20 16:55:00
10:14 AM,19.4,1.4,46,30.04,10.0,SE,16.1,21.9,N/A,,Overcast,130,2013-02-20 17:14:00
10:55 AM,23.0,1.0,39,30.14,10.0,SE,15.0,24.2,N/A,,Overcast,140,2013-02-20 17:55:00
11:24 AM,24.8,1.4,36,30.03,10.0,SE,17.3,23.0,N/A,,Mostly Cloudy,130,2013-02-20 18:24:00
11:55 AM,25.0,1.9,37,30.11,10.0,SE,15.0,23.0,N/A,,Overcast,130,2013-02-20 18:55:00
12:55 PM,25.0,6.1,45,30.09,10.0,SE,18.4,25.3,N/A,,Overcast,140,2013-02-20 19:55:00
1:55 PM,26.1,10.0,51,30.06,10.0,SE,16.1,26.5,0.00,,Overcast,140,2013-02-20 20:55:00
2:55 PM,26.1,10.9,53,30.06,10.0,SE,17.3,27.6,N/A,,Overcast,140,2013-02-20 21:55:00
3:55 PM,27.0,12.9,56,30.06,10.0,SE,18.4,-,N/A,,Overcast,140,2013-02-20 22:55:00
4:55 PM,27.0,16.0,63,30.05,10.0,SE,20.7,26.5,N/A,,Overcast,130,2013-02-20 23:55:00
5:55 PM,26.1,17.1,69,30.07,10.0,SE,19.6,28.8,0.00,,Overcast,130,2013-02-21 00:55:00
6:46 PM,24.8,17.6,74,29.98,1.8,SE,18.4,25.3,0.00,Snow,Light Snow,130,2013-02-21 01:46:00
6:55 PM,25.0,19.0,78,30.09,1.8,SE,16.1,25.3,0.00,Snow,Light Snow,130,2013-02-21 01:55:00
7:55 PM,21.9,18.0,85,30.09,4.0,ESE,12.7,-,0.01,Snow,Light Snow,110,2013-02-21 02:55:00
8:55 PM,21.9,17.1,82,30.09,6.0,ESE,12.7,-,0.01,Snow,Light Snow,110,2013-02-21 03:55:00
9:15 PM,21.2,17.6,86,30.00,5.0,East,8.1,-,0.00,Snow,Light Snow,100,2013-02-21 04:15:00
9:55 PM,23.0,19.0,85,30.09,9.0,SE,11.5,-,0.00,Snow,Light Snow,130,2013-02-21 04:55:00
10:55 PM,21.9,19.0,89,30.09,3.0,ESE,12.7,-,0.01,Snow,Light Snow,120,2013-02-21 05:55:00
11:48 PM,21.2,17.6,86,30.01,2.5,SE,15.0,-,0.00,Snow,Light Snow,130,2013-02-21 06:48:00
11:55 PM,21.0,18.0,88,30.09,2.5,ESE,11.5,-,0.00,Snow,Light Snow,120,2013-02-21 06:55:00